| time (UTC) | temp F | wind direction | speed knots | gust knots | rain 1hr in | rain 24hr in | rain mn in | humidity % | barometer mb |
| 20260905151504 | 87 | 194 | 4.3 | 9.6 | 0.00 | 0.00 | 0.00 | 69 | 1006.9 |
| 20260905150100 | 86 | 200 | 1.7 | 8.7 | 0.00 | 0.00 | 0.00 | 73 | 1007.0 |
| 20260905144555 | 85 | 169 | 2.6 | 7.0 | 0.00 | 0.00 | 0.00 | 76 | 1006.8 |
| 20260905143051 | 84 | 184 | 2.6 | 7.0 | 0.00 | 0.00 | 0.00 | 79 | 1006.8 |
| 20260905141553 | 82 | 152 | 0.9 | 6.1 | 0.00 | 0.00 | 0.00 | 82 | 1006.9 |
| 20260905140042 | 80 | 118 | 0.9 | 3.5 | 0.00 | 0.00 | 0.00 | 85 | 1006.9 |
| 20260905134537 | 79 | 107 | 0.0 | 0.9 | 0.00 | 0.02 | 0.00 | 86 | 1006.7 |
| 20260905133034 | 78 | 114 | 0.0 | 1.7 | 0.00 | 0.02 | 0.00 | 86 | 1006.7 |
| 20260905131536 | 77 | 108 | 0.0 | 1.7 | 0.00 | 0.02 | 0.00 | 88 | 1006.7 |
| 20260905130035 | 77 | 149 | 0.0 | 0.0 | 0.00 | 0.02 | 0.00 | 89 | 1006.6 |
| 20260905124519 | 0 | 0.0 | 0.0 | 0.00 | 0.02 | 0.00 | 1006.3 | ||
| 20260905123015 | 0 | 0.0 | 0.0 | 0.00 | 0.02 | 0.00 | 1006.0 | ||
| 20260905121510 | 0 | 0.0 | 0.0 | 0.00 | 0.02 | 0.00 | 1005.9 | ||
| 20260905120006 | 0 | 0.0 | 0.0 | 0.00 | 0.02 | 0.00 | 1005.8 | ||
| 20260905114501 | 0 | 0.0 | 0.0 | 0.00 | 0.02 | 0.00 | 1005.7 | ||
| 20260905113057 | 0 | 0.0 | 0.0 | 0.00 | 0.02 | 0.00 | 1005.6 | ||
| 20260905111608 | 0 | 0.0 | 0.0 | 0.00 | 0.02 | 0.00 | 1005.6 | ||
| 20260905110055 | 0 | 0.0 | 0.0 | 0.00 | 0.02 | 0.00 | 1005.7 | ||
| 20260905104544 | 0 | 0.0 | 0.0 | 0.00 | 0.02 | 0.00 | 1005.6 | ||
| 20260905103042 | 0 | 0.0 | 0.0 | 0.00 | 0.02 | 0.00 | 1005.5 | ||
| 20260905101544 | 0 | 0.0 | 0.0 | 0.00 | 0.02 | 0.00 | 1005.5 | ||
| 20260905100035 | 0 | 0.0 | 0.0 | 0.00 | 0.02 | 0.00 | 1005.5 | ||
| 20260905094530 | 0 | 0.0 | 0.0 | 0.00 | 0.02 | 0.00 | 1005.5 | ||
| 20260905093026 | 77 | 123 | 0.9 | 2.6 | 0.00 | 0.02 | 0.00 | 87 | 1005.3 |
| 20260905091525 | 77 | 146 | 0.0 | 0.9 | 0.00 | 0.02 | 0.00 | 86 | 1005.5 |
| 20260905090024 | 77 | 141 | 0.9 | 1.7 | 0.00 | 0.02 | 0.00 | 86 | 1005.4 |
| 20260905084527 | 77 | 143 | 0.0 | 0.9 | 0.00 | 0.02 | 0.00 | 85 | 1005.3 |
| 20260905083022 | 77 | 166 | 0.0 | 0.0 | 0.00 | 0.02 | 0.00 | 85 | 1005.3 |
| 20260905081520 | 77 | 166 | 0.0 | 0.0 | 0.00 | 0.02 | 0.00 | 85 | 1005.3 |
| 20260905080018 | 78 | 146 | 0.0 | 0.0 | 0.00 | 0.02 | 0.00 | 84 | 1005.4 |
| 20260905074515 | 78 | 131 | 0.9 | 2.6 | 0.00 | 0.02 | 0.00 | 84 | 1005.5 |
| 20260905073018 | 78 | 155 | 1.7 | 2.6 | 0.00 | 0.02 | 0.00 | 83 | 1005.7 |
| 20260905071526 | 79 | 143 | 0.9 | 2.6 | 0.00 | 0.02 | 0.00 | 83 | 1005.6 |
| 20260905070011 | 79 | 129 | 0.9 | 2.6 | 0.00 | 0.02 | 0.00 | 83 | 1005.6 |
| 20260905064510 | 79 | 159 | 0.0 | 1.7 | 0.00 | 0.02 | 0.00 | 82 | 1005.6 |
| 20260905063010 | 79 | 153 | 0.9 | 2.6 | 0.00 | 0.02 | 0.00 | 82 | 1005.8 |
| 20260905061510 | 79 | 208 | 0.9 | 4.3 | 0.00 | 0.02 | 0.00 | 82 | 1005.8 |
| 20260905060007 | 79 | 160 | 0.0 | 3.5 | 0.00 | 0.02 | 0.00 | 81 | 1005.7 |
| 20260905054516 | 80 | 163 | 2.6 | 4.3 | 0.00 | 0.02 | 0.00 | 80 | 1005.6 |
| 20260905053003 | 79 | 147 | 0.0 | 1.7 | 0.00 | 0.02 | 0.00 | 80 | 1005.7 |
| 20260905051503 | 80 | 141 | 0.0 | 1.7 | 0.00 | 0.02 | 0.00 | 80 | 1005.7 |
| 20260905050101 | 80 | 134 | 0.0 | 0.0 | 0.00 | 0.02 | 0.00 | 79 | 1005.8 |
| 20260905044556 | 81 | 134 | 0.0 | 0.9 | 0.00 | 0.02 | 0.02 | 78 | 1005.9 |
| 20260905043052 | 81 | 129 | 0.9 | 2.6 | 0.00 | 0.02 | 0.02 | 78 | 1005.8 |
| 20260905041548 | 81 | 139 | 0.0 | 0.9 | 0.00 | 0.02 | 0.02 | 77 | 1005.8 |
| 20260905040043 | 82 | 131 | 0.9 | 3.5 | 0.00 | 0.02 | 0.02 | 76 | 1005.8 |
| 20260905034538 | 82 | 137 | 1.7 | 3.5 | 0.00 | 0.02 | 0.02 | 75 | 1005.8 |
| 20260905033047 | 82 | 156 | 0.9 | 2.6 | 0.00 | 0.02 | 0.02 | 74 | 1005.8 |
| 20260905031529 | 83 | 133 | 1.7 | 4.3 | 0.00 | 0.02 | 0.02 | 73 | 1005.7 |
| 20260905030025 | 83 | 202 | 1.7 | 3.5 | 0.00 | 0.02 | 0.02 | 72 | 1005.6 |
| 20260905024520 | 84 | 169 | 0.9 | 4.3 | 0.00 | 0.02 | 0.02 | 71 | 1005.5 |
| 20260905023019 | 84 | 153 | 2.6 | 5.2 | 0.00 | 0.02 | 0.02 | 69 | 1005.4 |
| 20260905021512 | 85 | 131 | 1.7 | 4.3 | 0.00 | 0.02 | 0.02 | 67 | 1005.2 |
| 20260905020007 | 85 | 147 | 2.6 | 7.0 | 0.00 | 0.02 | 0.02 | 66 | 1005.1 |
| 20260905014502 | 86 | 162 | 4.3 | 7.0 | 0.00 | 0.02 | 0.02 | 64 | 1004.8 |
| 20260905013102 | 87 | 143 | 4.3 | 8.7 | 0.00 | 0.02 | 0.02 | 62 | 1004.7 |
| 20260905011557 | 87 | 148 | 3.5 | 6.1 | 0.00 | 0.02 | 0.02 | 62 | 1004.6 |
| 20260905010048 | 88 | 139 | 4.3 | 10.4 | 0.00 | 0.02 | 0.02 | 60 | 1004.3 |
| 20260905004544 | 89 | 141 | 6.1 | 13.0 | 0.00 | 0.02 | 0.02 | 58 | 1004.3 |
| 20260905003039 | 90 | 153 | 6.1 | 12.2 | 0.00 | 0.02 | 0.02 | 54 | 1004.0 |
| 20260905001535 | 91 | 147 | 7.0 | 13.0 | 0.00 | 0.02 | 0.02 | 53 | 1003.8 |
| 20260905000031 | 93 | 146 | 7.0 | 12.2 | 0.00 | 0.02 | 0.02 | 48 | 1003.7 |
| 20260904234525 | 93 | 127 | 6.1 | 12.2 | 0.00 | 0.02 | 0.02 | 47 | 1003.6 |
| 20260904233021 | 94 | 139 | 6.1 | 11.3 | 0.00 | 0.02 | 0.02 | 47 | 1003.5 |
| 20260904231516 | 94 | 125 | 5.2 | 10.4 | 0.00 | 0.02 | 0.02 | 45 | 1003.4 |
| 20260904230012 | 95 | 143 | 7.0 | 12.2 | 0.00 | 0.02 | 0.02 | 45 | 1003.5 |
| 20260904224508 | 95 | 117 | 5.2 | 10.4 | 0.00 | 0.02 | 0.02 | 43 | 1003.5 |
| 20260904223003 | 95 | 120 | 5.2 | 10.4 | 0.00 | 0.02 | 0.02 | 43 | 1003.6 |
| 20260904221601 | 96 | 148 | 4.3 | 12.2 | 0.00 | 0.02 | 0.02 | 43 | 1003.7 |
| 20260904220056 | 95 | 124 | 5.2 | 12.2 | 0.00 | 0.02 | 0.02 | 45 | 1003.8 |
| 20260904214551 | 95 | 145 | 6.1 | 13.0 | 0.00 | 0.02 | 0.02 | 46 | 1004.0 |
| 20260904213045 | 95 | 105 | 9.6 | 15.6 | 0.00 | 0.02 | 0.02 | 45 | 1004.1 |
| 20260904211541 | 96 | 155 | 6.1 | 14.8 | 0.00 | 0.02 | 0.02 | 45 | 1004.2 |
| 20260904210043 | 95 | 72 | 7.8 | 13.0 | 0.00 | 0.02 | 0.02 | 45 | 1004.3 |
| 20260904204531 | 95 | 138 | 4.3 | 9.6 | 0.00 | 0.02 | 0.02 | 46 | 1004.6 |
| 20260904203026 | 95 | 115 | 4.3 | 13.0 | 0.00 | 0.02 | 0.02 | 46 | 1004.6 |
| 20260904201521 | 96 | 193 | 6.1 | 11.3 | 0.00 | 0.02 | 0.02 | 45 | 1004.8 |
| 20260904200019 | 95 | 122 | 3.5 | 10.4 | 0.00 | 0.02 | 0.02 | 45 | 1004.9 |
| 20260904194513 | 95 | 124 | 5.2 | 12.2 | 0.00 | 0.02 | 0.02 | 47 | 1005.0 |
| 20260904193008 | 95 | 133 | 3.5 | 9.6 | 0.00 | 0.02 | 0.02 | 47 | 1005.1 |
| 20260904191503 | 93 | 142 | 2.6 | 9.6 | 0.00 | 0.02 | 0.02 | 51 | 1005.4 |
| 20260904190059 | 93 | 84 | 4.3 | 9.6 | 0.00 | 0.02 | 0.02 | 52 | 1005.7 |
| 20260904184556 | 92 | 122 | 4.3 | 9.6 | 0.00 | 0.02 | 0.02 | 52 | 1005.8 |
| 20260904183049 | 92 | 114 | 4.3 | 8.7 | 0.00 | 0.02 | 0.02 | 54 | 1006.0 |
| 20260904181545 | 93 | 117 | 1.7 | 9.6 | 0.00 | 0.02 | 0.02 | 54 | 1006.1 |
| 20260904180042 | 92 | 114 | 2.6 | 9.6 | 0.00 | 0.02 | 0.02 | 54 | 1006.3 |
| 20260904174543 | 91 | 202 | 3.5 | 7.8 | 0.00 | 0.02 | 0.02 | 57 | 1006.5 |
| 20260904173033 | 91 | 158 | 3.5 | 7.8 | 0.00 | 0.02 | 0.02 | 58 | 1006.6 |
| 20260904171530 | 91 | 237 | 3.5 | 8.7 | 0.00 | 0.02 | 0.02 | 57 | 1006.8 |
| 20260904170021 | 91 | 137 | 2.6 | 10.4 | 0.00 | 0.02 | 0.02 | 59 | 1007.0 |
| 20260904164517 | 91 | 228 | 6.1 | 10.4 | 0.00 | 0.02 | 0.02 | 57 | 1007.0 |
| 20260904163021 | 89 | 186 | 4.3 | 11.3 | 0.00 | 0.02 | 0.02 | 62 | 1006.9 |
| 20260904161508 | 88 | 129 | 2.6 | 8.7 | 0.00 | 0.02 | 0.02 | 66 | 1007.0 |
| 20260904160003 | 88 | 207 | 5.2 | 9.6 | 0.00 | 0.02 | 0.02 | 65 | 1007.1 |
| 20260904154558 | 86 | 240 | 5.2 | 9.6 | 0.00 | 0.02 | 0.02 | 69 | 1007.0 |
| 20260904153055 | 85 | 180 | 5.2 | 12.2 | 0.00 | 0.02 | 0.02 | 74 | 1007.0 |